• In Romania
  • List of Countries
  • For 7 days
  • Water Temperature
  • Satellite Maps
  • Weather Map
  • Weather Widgets
  • user-avatar
    Login

    Hourly Weather Vinh

    Today, 18 August, Saturday

    Time Temperature Precipitation Wind Pressure Humidity
    00:00 +27°C° 0.1 mm 1 mps 739 mmHg 94%
    01:00 +27°C° 0 mm 1 mps 739 mmHg 95%
    02:00 +27°C° 0.1 mm 1 mps 739 mmHg 94%
    03:00 +27°C° 0.1 mm 1 mps 739 mmHg 94%
    04:00 +27°C° 0.1 mm 1 mps 739 mmHg 94%
    05:00 +27°C° 0 mm 1 mps 739 mmHg 93%
    06:00 +27°C° 0 mm 1 mps 740 mmHg 92%
    07:00 +28°C° 0 mm 1 mps 740 mmHg 91%
    08:00 +29°C° 0.2 mm 1 mps 740 mmHg 86%
    09:00 +30°C° 0.2 mm 1 mps 740 mmHg 81%
    10:00 +31°C° 0.2 mm 1 mps 740 mmHg 75%
    11:00 +32°C° 0.3 mm 1 mps 740 mmHg 71%
    12:00 +35°C° 0.3 mm 2 mps 739 mmHg 67%
    13:00 +35°C° 0 mm 2 mps 739 mmHg 64%
    14:00 +35°C° 1.2 mm 2 mps 739 mmHg 67%
    15:00 +35°C° 1.2 mm 2 mps 739 mmHg 69%
    16:00 +34°C° 1.2 mm 2 mps 738 mmHg 72%
    17:00 +31°C° 2.1 mm 2 mps 738 mmHg 79%
    18:00 +30°C° 2.1 mm 1 mps 739 mmHg 86%
    19:00 +28°C° 2.1 mm 1 mps 739 mmHg 92%
    20:00 +28°C° 1.7 mm 1 mps 740 mmHg 92%
    21:00 +28°C° 1.7 mm 1 mps 740 mmHg 93%
    22:00 +28°C° 1.7 mm 1 mps 741 mmHg 93%
    23:00 +27°C° 0.6 mm 1 mps 741 mmHg 93%

    Tomorrow, 19 August, Sunday

    Time Temperature Precipitation Wind Pressure Humidity
    00:00 +27°C° 0.6 mm 1 mps 741 mmHg 93%
    01:00 +27°C° 0.6 mm 1 mps 741 mmHg 93%
    02:00 +27°C° 0.2 mm 1 mps 741 mmHg 93%
    03:00 +27°C° 0.2 mm 1 mps 740 mmHg 93%
    04:00 +27°C° 0.2 mm 1 mps 740 mmHg 93%
    05:00 +27°C° 0 mm 1 mps 741 mmHg 92%
    06:00 +28°C° 0 mm 1 mps 741 mmHg 91%
    07:00 +28°C° 0 mm 1 mps 741 mmHg 90%
    08:00 +29°C° 0 mm 1 mps 741 mmHg 85%
    09:00 +31°C° 0 mm 1 mps 742 mmHg 79%
    10:00 +32°C° 0 mm 1 mps 742 mmHg 73%
    11:00 +33°C° 0 mm 1 mps 741 mmHg 69%
    12:00 +34°C° 0 mm 1 mps 741 mmHg 64%
    13:00 +36°C° 0 mm 1 mps 741 mmHg 59%
    14:00 +35°C° 0.5 mm 1 mps 740 mmHg 63%
    15:00 +36°C° 0.5 mm 2 mps 740 mmHg 67%
    16:00 +35°C° 0.5 mm 2 mps 739 mmHg 71%
    17:00 +34°C° 0.9 mm 2 mps 739 mmHg 77%
    18:00 +31°C° 0.9 mm 2 mps 740 mmHg 83%
    19:00 +29°C° 0.9 mm 1 mps 740 mmHg 89%
    20:00 +29°C° 0 mm 1 mps 741 mmHg 89%
    21:00 +29°C° 0 mm 2 mps 741 mmHg 89%
    22:00 +28°C° 0 mm 2 mps 742 mmHg 89%
    23:00 +28°C° 0.1 mm 2 mps 742 mmHg 89%

    Day after tomorrow, 20 August, Monday

    Time Temperature Precipitation Wind Pressure Humidity
    00:00 +28°C° 0.1 mm 2 mps 742 mmHg 88%
    01:00 +28°C° 0.1 mm 2 mps 741 mmHg 88%
    02:00 +28°C° 0 mm 2 mps 741 mmHg 88%
    03:00 +28°C° 0 mm 2 mps 741 mmHg 87%
    04:00 +28°C° 0 mm 2 mps 740 mmHg 87%
    05:00 +28°C° 0.1 mm 2 mps 741 mmHg 87%
    06:00 +28°C° 0.1 mm 2 mps 741 mmHg 86%
    07:00 +29°C° 0.1 mm 2 mps 741 mmHg 85%
    08:00 +30°C° 0 mm 2 mps 742 mmHg 79%
    09:00 +32°C° 0 mm 2 mps 742 mmHg 72%
    10:00 +34°C° 0 mm 2 mps 742 mmHg 66%
    11:00 +35°C° 0 mm 2 mps 742 mmHg 63%
    12:00 +36°C° 0 mm 3 mps 741 mmHg 60%
    13:00 +37°C° 0 mm 3 mps 741 mmHg 57%
    14:00 +37°C° 0 mm 3 mps 740 mmHg 59%
    15:00 +36°C° 0 mm 3 mps 739 mmHg 60%
    16:00 +36°C° 0 mm 3 mps 739 mmHg 62%
    17:00 +34°C° 0 mm 3 mps 739 mmHg 67%
    18:00 +33°C° 0 mm 3 mps 740 mmHg 72%
    19:00 +30°C° 0 mm 3 mps 740 mmHg 78%
    20:00 +30°C° 0 mm 3 mps 741 mmHg 78%
    21:00 +30°C° 0 mm 3 mps 741 mmHg 79%
    22:00 +29°C° 0 mm 3 mps 742 mmHg 80%
    23:00 +29°C° 0 mm 3 mps 741 mmHg 80%

    21 August, Tuesday

    Time Temperature Precipitation Wind Pressure Humidity
    00:00 +29°C° 0 mm 3 mps 741 mmHg 79%
    01:00 +29°C° 0 mm 3 mps 740 mmHg 79%
    02:00 +29°C° 0 mm 3 mps 740 mmHg 80%
    03:00 +29°C° 0 mm 2 mps 740 mmHg 80%
    04:00 +28°C° 0 mm 2 mps 739 mmHg 80%
    05:00 +29°C° 0 mm 2 mps 740 mmHg 80%
    06:00 +29°C° 0 mm 2 mps 740 mmHg 80%
    07:00 +29°C° 0 mm 2 mps 740 mmHg 80%
    08:00 +31°C° 0 mm 2 mps 740 mmHg 75%
    09:00 +33°C° 0 mm 3 mps 741 mmHg 69%
    10:00 +35°C° 0 mm 3 mps 741 mmHg 63%
    11:00 +35°C° 0 mm 3 mps 740 mmHg 62%
    12:00 +36°C° 0 mm 3 mps 739 mmHg 60%
    13:00 +36°C° 0 mm 3 mps 739 mmHg 58%
    14:00 +36°C° 0 mm 3 mps 738 mmHg 60%
    15:00 +36°C° 0 mm 3 mps 738 mmHg 61%
    16:00 +36°C° 0 mm 3 mps 737 mmHg 62%
    17:00 +34°C° 0 mm 3 mps 738 mmHg 68%
    18:00 +33°C° 0 mm 3 mps 738 mmHg 73%
    19:00 +30°C° 0 mm 3 mps 738 mmHg 78%
    20:00 +30°C° 0.2 mm 3 mps 739 mmHg 79%
    21:00 +30°C° 0.2 mm 3 mps 740 mmHg 81%
    22:00 +29°C° 0.2 mm 3 mps 740 mmHg 82%
    23:00 +29°C° 0 mm 2 mps 740 mmHg 81%

    22 August, Wednesday

    Time Temperature Precipitation Wind Pressure Humidity
    00:00 +29°C° 0 mm 2 mps 739 mmHg 81%
    01:00 +29°C° 0 mm 2 mps 739 mmHg 81%
    02:00 +29°C° 0.1 mm 2 mps 739 mmHg 82%
    03:00 +28°C° 0.1 mm 2 mps 739 mmHg 82%
    04:00 +28°C° 0.1 mm 2 mps 738 mmHg 83%
    05:00 +28°C° 0.1 mm 2 mps 739 mmHg 83%
    06:00 +29°C° 0.1 mm 2 mps 739 mmHg 83%
    07:00 +29°C° 0.1 mm 2 mps 740 mmHg 83%
    08:00 +30°C° 0 mm 2 mps 740 mmHg 78%
    09:00 +31°C° 0 mm 3 mps 740 mmHg 73%
    10:00 +34°C° 0 mm 3 mps 741 mmHg 68%
    11:00 +34°C° 0 mm 3 mps 740 mmHg 66%
    12:00 +35°C° 0 mm 3 mps 739 mmHg 64%
    13:00 +35°C° 0 mm 3 mps 739 mmHg 62%
    14:00 +35°C° 0 mm 3 mps 738 mmHg 63%
    15:00 +35°C° 0 mm 3 mps 738 mmHg 64%
    16:00 +35°C° 0 mm 3 mps 737 mmHg 65%
    17:00 +34°C° 0.1 mm 3 mps 738 mmHg 69%
    18:00 +31°C° 0.1 mm 3 mps 738 mmHg 74%
    19:00 +30°C° 0.1 mm 3 mps 739 mmHg 79%
    20:00 +30°C° 0.1 mm 3 mps 739 mmHg 80%
    21:00 +29°C° 0.1 mm 2 mps 740 mmHg 81%
    22:00 +29°C° 0.1 mm 2 mps 740 mmHg 82%
    23:00 +29°C° 0 mm 2 mps 740 mmHg 82%

    23 August, Thursday

    Time Temperature Precipitation Wind Pressure Humidity
    00:00 +29°C° 0 mm 2 mps 740 mmHg 82%
    01:00 +29°C° 0 mm 2 mps 739 mmHg 82%
    02:00 +29°C° 0 mm 2 mps 739 mmHg 82%
    03:00 +29°C° 0 mm 2 mps 739 mmHg 81%
    04:00 +29°C° 0 mm 2 mps 739 mmHg 81%
    05:00 +29°C° 0 mm 2 mps 740 mmHg 81%
    06:00 +29°C° 0 mm 2 mps 740 mmHg 81%
    07:00 +29°C° 0 mm 2 mps 741 mmHg 81%
    08:00 +31°C° 0 mm 2 mps 741 mmHg 75%
    09:00 +33°C° 0 mm 3 mps 741 mmHg 70%
    10:00 +34°C° 0 mm 3 mps 741 mmHg 64%
    11:00 +35°C° 0 mm 3 mps 741 mmHg 62%
    12:00 +36°C° 0 mm 3 mps 740 mmHg 59%
    13:00 +37°C° 0 mm 3 mps 740 mmHg 56%
    14:00 +36°C° 0 mm 3 mps 740 mmHg 58%
    15:00 +36°C° 0 mm 3 mps 739 mmHg 60%
    16:00 +36°C° 0 mm 3 mps 739 mmHg 62%
    17:00 +34°C° 0.1 mm 3 mps 739 mmHg 67%
    18:00 +31°C° 0.1 mm 2 mps 740 mmHg 73%
    19:00 +30°C° 0.1 mm 2 mps 740 mmHg 78%
    20:00 +30°C° 0.1 mm 2 mps 741 mmHg 79%
    21:00 +29°C° 0.1 mm 2 mps 741 mmHg 80%
    22:00 +29°C° 0.1 mm 2 mps 741 mmHg 81%
    23:00 +29°C° 0 mm 2 mps 741 mmHg 81%
    Show more